Regional Weather Roundup
Issued by NWS

Home | Current Version | Previous Version | Graphics & Text | Print | Product List | Glossary On
Versions: 1 2 3 4 5 6 7 8 9 10 11 12 13 14 15 16 17 18 19 20 21 22 23 24 25 26 27 28 29 30 31 32 33 34 35 36 37 38 39 40 41 42 43 44 45 46 47 48 49 50
000
ASUS43 KDMX 271601
RWRIA

WEATHER ROUNDUP FOR IOWA
NATIONAL WEATHER SERVICE DES MOINES IA
1100 AM CDT TUE JUN 27 2017

NOTE: "FAIR" INDICATES FEW OR NO CLOUDS BELOW 12,000 FEET WITH NO
SIGNIFICANT WEATHER AND/OR OBSTRUCTIONS TO VISIBILITY.

* - THESE STATIONS ARE NOT NWS STATIONS...THUS NOT UNDER NWS
QUALITY CONTROL.  THEY ALSO DO NOT REPORT WEATHER SUCH
AS PRECIPITATION OR FOG.

IAZ001>003-012>014-020>022-031>034-043>046-271700-
   NORTHWEST IOWA

CITY           SKY/WX    TMP DP  RH WIND       PRES   REMARKS
CARROLL *      SUNNY     72  45  37 S12G23    30.09F
CHEROKEE *     SUNNY     69  46  42 S13G18    30.05F
DENISON *      SUNNY     70  48  46 S10G21    30.08F
LE MARS *      SUNNY     72  48  43 S15G26    30.03F
ORANGE CITY *  SUNNY     70  46  43 S16G25    30.03F
SHELDON *      SUNNY     70  46  43 S15G25    30.03F
SIOUX CITY     SUNNY     72  51  47 S16       30.04F
SPENCER        CLOUDY    71  43  36 S14G22    30.05F
STORM LAKE *   SUNNY     70  45  40 S15G22    30.07F
$$

IAZ055>058-069>071-079>083-090>094-271700-
   SOUTHWEST IOWA

CITY           SKY/WX    TMP DP  RH WIND       PRES   REMARKS
ATLANTIC *     SUNNY     70  50  49 S10G21    30.08F
AUDUBON *      SUNNY     70  48  46 S13       30.10F
CLARINDA *     SUNNY     72  59  64 S10       30.10F
COUNCIL BLFS * SUNNY     70  59  68 SE13      30.06F
CRESTON *      SUNNY     72  52  49 S14       30.12F
HARLAN  *      SUNNY     70  50  49 SE12G20   30.10F
LAMONI         SUNNY     70  56  61 SE8       30.11F
RED OAK *      SUNNY     72  59  64 SE10      30.07F
SHENANDOAH *   MOSUNNY   72  61  68 SE12G20   30.08F
$$

IAZ047>049-059>061-072>074-084-271700-
   CENTRAL IOWA

CITY           SKY/WX    TMP DP  RH WIND       PRES   REMARKS
AMES           SUNNY     71  46  40 S10       30.11F
ANKENY *       SUNNY     70  45  40 SE12      30.12F
BOONE *        SUNNY     70  43  37 S12G20    30.09F
CHARITON *     SUNNY     72  46  40 SE10G17   30.12F
DES MOINES     MOSUNNY   71  43  36 SE10      30.11F
GRINNELL*        N/A     69  42  37 S7        30.14F
KNOXVILLE *    SUNNY     70  41  35 SE6G14    30.12F
MARSHALLTOWN   SUNNY     70  44  39 SW9       30.12F
NEWTON *       SUNNY     70  43  37 S8G14     30.13F
PELLA *        SUNNY     71  40  32 S6        30.14F
PERRY *          N/A     70  41  34 SE9G16    30.11F
$$

IAZ004>006-015-016-023>025-035-036-271700-
   NORTH CENTRAL IOWA

CITY           SKY/WX    TMP DP  RH WIND       PRES   REMARKS
ALGONA *       SUNNY     70  43  37 S13G21    30.08F
CLARION *        N/A     70  43  37 S10G20    30.09F
ESTHERVILLE    SUNNY     68  44  42 S15G23    30.06F
FORT DODGE *   SUNNY     72  43  35 S10       30.10F
MASON CITY     SUNNY     69  41  36 S9        30.11F
FOREST CITY *    N/A     72  28  20 S10G17    30.09F
WEBSTER CITY * SUNNY     70  45  40 SE13      30.08F
IOWA FALLS *     N/A     70  44  38 S8        30.12F
$$

IAZ007>011-017>019-026>030-037>042-050>054-066-271700-
   NORTHEAST IOWA

CITY           SKY/WX    TMP DP  RH WIND       PRES   REMARKS
CEDAR RAPIDS   SUNNY     69  48  47 SE7       30.14F
CHARLES CITY * SUNNY     70  41  35 SW8G15    30.11F
CLINTON *      SUNNY     70  48  45 NW6       30.15F
DECORAH *      SUNNY     68  45  42 VRB6G12   30.11F
DUBUQUE        SUNNY     69  44  40 W5        30.14F
MONTICELLO *   SUNNY     70  46  43 VRB6      30.13F
WATERLOO       SUNNY     70  42  36 SW7       30.11F
$$

IAZ064-065-067-068-078-271700-
   EAST CENTRAL IOWA

CITY           SKY/WX    TMP DP  RH WIND       PRES   REMARKS
DAVENPORT      SUNNY     69  44  40 CALM      30.16S
IOWA CITY      SUNNY     71  45  39 SE5       30.16F
MUSCATINE *    SUNNY     72  45  37 VRB3      30.15F
QUAD CITIES    SUNNY     73  46  38 N6        30.15F
$$

IAZ062-063-075>077-085>089-095>099-271700-
   SOUTHEAST IOWA

CITY           SKY/WX    TMP DP  RH WIND       PRES   REMARKS
BURLINGTON     SUNNY     70  43  37 S5        30.15F
FAIRFIELD *    SUNNY     72  39  30 VRB3      30.14F
FORT MADISON * SUNNY     70  45  40 CALM      30.16F
KEOKUK *       SUNNY     72  45  37 E8        30.15S
OSKALOOSA *      N/A     70  41  34 SE5       30.14F
OTTUMWA        SUNNY     71  42  35 VRB7      30.14F
WASHINGTON *   SUNNY     70  45  40 S6        30.15F
$$

ABBREVIATIONS USED IN REMARKS
   TC - TEMPERATURES IN CELSIUS
  WCI - WIND CHILL INDEX
   HX - HEAT INDEX
  VSB - VISIBILITY
$$




USA.gov is the U.S. government's official web portal to all federal, state and local government web resources and services.